Ogden, UT

1:25 AM MDT on April 30, 2017 (GMT -0600)
Ogden-Hinckley

Weather History for KOGD - October, 2012

Change the Weather History Date:

Sunday, October 7, 2012

  Actual Average Record
Temperature  
Mean Temperature 46 °F -  
Max Temperature 59 °F 70 °F 85 °F (1956)
Min Temperature 34 °F 40 °F 30 °F (1955)
Degree Days  
Heating Degree Days 20    
Moisture  
Dew Point 12 °F    
Average Humidity 26    
Maximum Humidity 35    
Minimum Humidity 15    
Precipitation  
Precipitation 0.00 in - - ()
Sea Level Pressure  
Sea Level Pressure 30.12 in    
Wind  
Wind Speed 5 mph (South)    
Max Wind Speed 8 mph    
Max Gust Speed -    
Visibility 10 miles    
Events      
Averages and records for this station are not official NWS values.
T = Trace of Precipitation, MM = Missing Value Source: NWS Daily Summary

Daily Weather History Graph

Daily Weather History Graph

Search for Another Location

Airport or City:

Trip Planner

Search our weather history database for the weather conditions in past years. The results will help you decide how hot, cold, wet, or windy it might be!

Date:

Astronomy

Oct. 07, 2012 Rise Set
Actual Time 7:31 AM MDT 6:59 PM MDT
Civil Twilight 7:04 AM MDT 7:26 PM MDT
Nautical Twilight 6:32 AM MDT 7:58 PM MDT
Astronomical Twilight 6:00 AM MDT 8:30 PM MDT
Moon No Moon Rise 2:13 PM MDT (10/7)
Length of Visible Light 12h 22m
Length of Day
11h 27m
Waning Gibbous, 55% of the Moon is Illuminated
Oct 7
Waning Gibbous
Oct 8
Last Quarter
Oct 15
New
Oct 21
First Quarter
Oct 29
Full

Hourly Weather History & Observations

Time (MDT) Temp. Windchill Dew Point Humidity Pressure Visibility Wind Dir Wind Speed Gust Speed Precip Events Conditions
12:53 AM 41.0 °F 37.1 °F 12.9 °F 32% 30.09 in 10.0 mi SW 5.8 mph - N/A   Clear
1:53 AM 39.0 °F 34.8 °F 10.9 °F 32% 30.11 in 10.0 mi South 5.8 mph - N/A   Clear
2:53 AM 37.9 °F 33.5 °F 8.1 °F 29% 30.12 in 10.0 mi South 5.8 mph - N/A   Clear
3:53 AM 36.0 °F 31.1 °F 8.1 °F 31% 30.12 in 10.0 mi SSW 5.8 mph - N/A   Clear
4:53 AM 37.9 °F 32.7 °F 7.0 °F 28% 30.12 in 10.0 mi South 6.9 mph - N/A   Clear
5:53 AM 36.0 °F 32.1 °F 8.1 °F 31% 30.13 in 10.0 mi South 4.6 mph - N/A   Clear
6:53 AM 35.1 °F 29.3 °F 7.0 °F 31% 30.14 in 10.0 mi South 6.9 mph - N/A   Clear
7:53 AM 34.0 °F 27.2 °F 8.1 °F 34% 30.17 in 10.0 mi South 8.1 mph - N/A   Clear
8:53 AM 39.9 °F 35.8 °F 8.1 °F 27% 30.18 in 10.0 mi South 5.8 mph - N/A   Clear
9:53 AM 44.1 °F - 7.0 °F 22% 30.19 in 10.0 mi Calm Calm - N/A   Clear
10:53 AM 50.0 °F - 10.0 °F 20% 30.19 in 10.0 mi SSE 8.1 mph - N/A   Clear
11:53 AM 53.1 °F - 16.0 °F 23% 30.18 in 10.0 mi South 3.5 mph - N/A   Clear
12:53 PM 55.0 °F - 17.1 °F 23% 30.16 in 10.0 mi Variable 3.5 mph - N/A   Clear
1:53 PM 57.0 °F - 16.0 °F 20% 30.14 in 10.0 mi West 4.6 mph - N/A   Clear
2:53 PM 57.9 °F - 12.9 °F 17% 30.11 in 10.0 mi Calm Calm - N/A   Clear
3:53 PM 57.9 °F - 10.9 °F 16% 30.09 in 10.0 mi Variable 3.5 mph - N/A   Clear
4:53 PM 57.9 °F - 10.0 °F 15% 30.08 in 10.0 mi WSW 4.6 mph - N/A   Clear
6:53 PM 53.1 °F - 14.0 °F 21% 30.08 in 10.0 mi Calm Calm - N/A   Clear
7:53 PM 48.9 °F - 17.1 °F 28% 30.09 in 10.0 mi Calm Calm - N/A   Clear
8:53 PM 44.1 °F 40.8 °F 18.0 °F 35% 30.09 in 10.0 mi South 5.8 mph - N/A   Clear
9:53 PM 45.0 °F 40.6 °F 15.1 °F 30% 30.08 in 10.0 mi South 8.1 mph - N/A   Clear
10:53 PM 44.1 °F 39.5 °F 12.9 °F 28% 30.07 in 10.0 mi South 8.1 mph - N/A   Clear
11:53 PM 42.1 °F 37.1 °F 12.9 °F 31% 30.07 in 10.0 mi South 8.1 mph - N/A   Clear